Temperature
17 16 16 16 16 16 16 16 16 16 16 16 17 17 17 17 17 17 16 17 17 16 16 16 16 16 16 16 16 15 15 15 15 15 15 15 15 15 15 15 15 15 15
16 16 16 16 16 16 16 16 16 16 16 16 16 16 16 16 16 16 16 16 16 16 16 16 15 15 15 15 15 15 15 15 14 14 14 14 14 14 14 14 14 14 14
16 16 16 16 16 16 16 16 15 16 16 16 16 16 16 16 15 15 15 15 15 15 15 15 15 15 14 14 14 14 14 14 14 14 14 14 14 14 14 14 14 14 14
16 16 16 16 16 16 16 16 16 16 16 15 15 15 15 15 15 15 14 14 14 14 14 14 14 14 14 13 13 13 13 13 13 13 13 13 13 13 13 13 13 13 13
16 16 16 16 16 16 16 16 16 16 15 15 14 14 14 14 14 13 14 13 13 13 12 12 13 13 12 12 12 11 11 11 11 11 12 12 12 12 12 12 12 12 12
16 16 16 16 16 15 15 15 15 15 15 14 13 13 13 13 13 12 12 12 11 11 11 10 10 10 10 10 10 10 10 10 10 10 10 10 10 11 11 11 11 11 11
15 15 15 15 15 15 15 14 14 14 14 13 13 12 12 12 11 11 11 10 10 9 9 9 9 9 9 9 9 9 9 9 9 9 9 9 9 10 10 10 10 10 10
14 14 14 14 14 14 14 14 13 13 13 12 12 11 11 11 10 10 9 9 9 9 9 9 8 8 8 8 8 8 8 8 9 8 8 8 8 8 9 9 9 9 9
13 13 13 13 13 13 13 13 12 12 12 11 11 11 11 13 12 10 9 8 8 8 8 8 8 8 7 7 7 7 6 6 7 7 7 7 7 7 7 8 8 8 8
13 12 12 12 12 12 12 12 11 11 11 10 10 10 9 9 10 12 10 9 8 7 8 7 8 7 7 7 7 6 5 5 6 6 5 5 5 5 6 6 7 7 7
12 12 12 12 11 11 11 11 11 10 10 9 9 9 8 8 8 9 10 9 9 9 8 8 7 7 6 6 6 6 5 5 5 5 4 4 4 4 4 5 5 5 5
12 11 11 11 10 10 10 10 10 9 8 8 8 8 8 9 9 9 9 9 9 9 8 8 7 6 6 6 6 5 4 4 4 4 4 4 4 4 4 4 4 4 5
11 10 10 10 10 10 10 9 8 7 7 6 6 7 7 7 7 7 8 8 8 8 8 8 7 7 6 5 5 4 3 3 3 3 3 3 3 3 4 3 3 3 4
10 9 9 9 9 9 8 8 7 6 6 6 6 6 6 7 6 6 7 7 7 8 8 8 7 6 5 5 4 3 2 2 2 2 2 2 2 3 3 3 3 3 3
9 9 8 8 8 7 7 6 6 6 6 6 6 6 5 6 5 5 5 5 6 6 7 7 6 5 4 3 3 2 2 2 1 1 1 1 1 2 2 2 2 2 2
8 8 8 7 7 6 6 6 6 5 5 5 5 4 4 5 4 4 4 4 4 5 5 5 4 4 3 2 2 1 1 1 1 1 1 1 1 1 1 1 1 2 2
8 7 7 6 6 6 6 5 5 5 4 4 4 4 3 3 3 3 3 4 4 4 4 3 3 2 2 1 1 1 1 1 1 1 1 1 0 0 0 0 1 1 1
7 6 6 6 5 5 5 4 4 4 3 3 3 3 3 3 2 2 2 2 2 2 2 2 2 2 1 1 1 1 1 1 1 1 1 1 0 0 0 0 0 1 1
6 5 5 5 5 4 4 4 3 3 2 2 2 2 2 2 2 2 1 1 1 1 1 1 1 1 1 1 1 1 1 1 1 1 1 1 1 0 0 0 0 1 1
5 5 5 4 4 3 3 3 2 2 2 2 1 1 1 1 1 1 1 1 1 1 1 0 1 1 1 1 1 1 1 1 1 1 1 1 1 1 1 1 1 1 1
4 4 4 3 3 3 2 2 2 1 1 1 1 1 1 1 1 0 0 -0 -0 0 0 0 0 1 1 1 0 0 0 0 0 0 1 1 1 1 1 1 1 1 1
4 3 3 2 2 2 2 2 2 1 1 1 1 1 1 0 0 -0 -0 -0 -0 -0 -0 0 0 0 0 0 0 0 0 0 0 0 0 1 1 1 1 1 1 1 1
2 2 2 2 1 1 2 1 1 1 0 0 0 0 0 0 -0 -0 -0 -0 -0 -0 -0 0 0 0 0 0 -0 -0 -0 -0 -0 0 0 0 1 1 1 1 1 1 1
2 1 1 1 1 0 1 1 1 0 0 0 0 0 -0 -0 -0 -1 -0 -0 0 0 0 0 0 0 0 0 -0 -0 -0 -0 -0 -0 0 0 0 1 1 1 1 1 1
1 1 1 0 0 -0 0 0 0 -0 -0 -0 -0 -0 -0 -0 -1 -1 -0 0 0 1 1 0 0 0 -0 -0 -0 -0 -0 -0 -0 -0 -0 -0 0 0 1 1 1 1 1
1 1 0 -0 -0 -1 -1 -0 -0 -1 -1 -0 -0 -0 -0 -1 -0 -0 -0 0 0 1 1 1 0 0 0 -0 -0 -0 -0 -0 -1 -1 -0 -1 -0 -0 0 1 1 1 1
Wind_Speed
6 6 5 4 5 4 5 5 4 4 4 4 3 2 3 3 2 2 6 12 10 8 5 3 2 1 2 2 3 4 5 6 7 8 9 9 10 10 10 9 9 9 10
6 6 5 4 4 3 2 2 3 3 3 2 3 3 2 2 4 2 2 8 14 12 10 8 6 4 3 2 3 4 4 5 7 8 9 10 11 12 12 12 12 12 12
7 5 4 4 3 3 4 3 4 3 3 3 3 4 4 4 4 4 2 2 5 13 13 12 11 10 9 7 5 4 4 4 4 5 7 8 9 10 12 12 13 13 14
6 5 4 4 6 6 6 5 4 4 4 3 3 3 3 3 3 2 1 1 1 1 9 12 12 11 11 10 9 8 7 7 7 6 6 7 8 8 10 11 12 12 13
5 5 5 6 7 7 6 5 5 4 4 3 2 2 2 2 2 1 1 1 2 1 1 7 9 9 9 9 8 8 8 8 8 8 8 8 8 9 9 10 11 11 12
5 7 7 8 8 6 5 5 5 4 3 2 1 1 1 2 2 1 2 1 1 1 1 2 2 3 5 4 5 6 7 8 8 9 9 9 10 10 11 10 11 11 12
7 8 8 8 6 5 5 5 4 4 3 2 2 2 2 2 2 3 3 3 2 2 3 4 6 7 5 4 3 2 7 9 10 11 12 12 12 12 13 13 13 13 14
7 7 9 7 6 5 5 4 4 3 3 1 2 3 4 5 5 5 4 4 4 5 6 7 7 8 10 11 4 4 8 10 12 14 15 15 15 15 15 16 16 16 16
7 6 8 8 6 5 5 5 4 4 3 2 0 3 4 6 3 6 6 6 6 6 9 8 11 11 12 12 14 11 8 11 15 17 17 18 18 18 18 19 19 20 20
8 7 7 8 6 5 6 5 4 4 3 3 3 0 2 4 5 4 6 7 8 9 10 10 12 12 13 14 13 13 13 13 15 17 19 20 20 21 21 21 22 22 23
9 9 9 9 8 7 7 7 6 4 3 2 2 2 1 2 4 6 8 7 8 9 9 9 10 12 14 14 14 13 6 9 14 18 19 21 22 23 23 24 24 25 25
7 9 10 9 9 9 8 7 6 6 4 3 1 1 3 4 6 7 9 10 11 10 10 9 10 12 12 13 15 9 8 13 17 19 19 20 22 23 24 25 26 26 26
8 8 9 8 9 9 9 8 6 5 4 2 1 2 4 6 6 8 10 12 13 13 12 11 9 10 12 13 14 5 11 17 19 19 19 20 22 23 24 25 26 26 27
9 9 9 9 9 9 8 6 5 3 2 1 2 3 6 6 7 8 10 12 14 14 13 13 10 12 13 13 13 10 18 19 18 19 20 22 24 25 25 26 26 26 26
10 10 10 9 9 7 6 4 3 2 1 2 3 4 6 7 7 8 9 10 13 16 16 14 12 12 14 16 16 19 21 21 21 22 24 26 26 26 26 27 27 27 27
10 10 9 8 7 6 5 2 3 2 1 2 4 5 7 8 8 9 9 10 11 14 16 14 13 14 15 17 20 22 24 24 25 26 26 25 25 25 25 26 26 27 27
10 9 8 7 7 6 4 3 2 1 2 4 5 6 8 9 9 9 10 10 11 12 15 15 14 14 16 18 18 21 22 22 22 22 22 22 23 24 25 26 26 26 25
9 9 8 7 6 5 3 2 1 2 4 5 7 8 9 9 10 11 10 11 11 12 14 17 16 15 17 18 17 17 18 19 19 21 22 23 25 25 26 26 26 25 23
10 8 7 7 5 4 3 2 2 3 5 6 8 9 10 10 11 10 11 11 11 12 12 15 16 15 15 15 16 16 16 15 18 19 20 22 23 24 25 25 24 23 22
9 7 6 5 3 2 2 2 4 5 6 8 8 9 10 10 10 11 11 12 12 13 14 14 14 14 14 15 13 13 13 13 14 16 18 18 19 20 22 24 25 24 23
7 5 4 3 2 2 4 6 6 6 8 9 9 9 9 9 10 10 11 13 14 13 13 13 13 13 13 13 12 11 13 13 14 14 13 12 11 11 13 18 23 24 24
5 4 3 2 2 4 8 8 9 9 9 10 10 9 9 9 8 11 14 15 17 17 15 14 13 13 15 14 12 12 12 12 9 8 11 13 12 13 11 12 12 13 17
4 3 3 3 3 6 5 6 9 11 10 9 9 9 9 9 10 11 13 17 18 17 18 16 15 15 15 13 13 13 12 13 12 12 12 13 12 11 9 9 9 11 13
3 3 3 3 3 5 6 7 11 11 9 9 9 10 10 11 9 12 16 16 16 15 15 14 13 14 13 13 12 13 13 11 12 12 10 10 10 9 9 7 6 8 10
3 3 3 3 3 4 5 6 11 9 7 10 10 9 10 10 9 12 15 15 16 15 15 15 17 18 19 18 14 10 10 9 9 10 8 6 7 8 8 6 3 6 8
2 2 3 3 3 3 4 4 11 8 8 9 9 10 6 6 12 14 14 13 14 15 16 15 12 10 10 9 10 8 7 7 7 5 5 6 6 6 5 5 5 3 5
Wind_Direction
208 201 198 191 203 194 190 198 195 159 168 160 140 113 89 71 53 42 95 76 68 66 61 46 24 340 300 279 265 258 256 257 258 256 254 252 251 250 247 245 241 239 237
206 205 195 188 194 201 196 188 160 166 172 128 109 78 45 65 64 8 70 94 77 68 64 60 53 41 13 327 306 292 282 275 271 266 261 256 252 250 249 248 245 241 237
205 199 192 172 149 125 115 120 114 117 112 106 77 57 48 31 42 30 9 347 97 80 69 65 62 58 50 39 23 6 348 333 316 300 284 271 262 257 252 249 247 245 241
205 190 163 138 123 119 118 111 108 101 85 71 56 33 33 36 33 14 341 349 343 113 84 71 65 60 54 47 41 34 28 19 9 352 328 307 295 284 269 259 253 249 247
188 158 132 123 124 117 113 111 104 104 97 80 66 33 2 342 318 359 23 55 73 342 110 102 86 68 54 43 33 24 15 7 0 354 347 339 337 330 307 282 268 259 254
131 130 125 127 125 118 112 107 108 101 101 96 44 1 316 300 282 256 236 177 176 224 299 323 261 108 89 52 20 3 350 338 332 328 324 322 326 331 327 310 286 269 259
123 133 132 131 128 122 122 132 128 128 128 152 185 221 233 248 255 243 250 251 211 266 278 292 294 306 280 198 196 327 320 315 310 306 303 302 304 308 311 309 301 282 266
129 144 143 141 136 132 141 155 158 161 136 171 240 247 244 220 221 225 230 234 258 266 272 271 287 279 285 288 252 264 281 289 293 293 292 291 292 292 293 294 293 287 275
144 151 148 140 143 151 153 158 158 154 144 138 288 265 271 278 218 201 227 242 251 272 278 281 273 277 277 278 281 267 268 285 286 286 285 285 286 285 285 285 284 282 277
126 125 123 121 121 121 125 130 117 126 146 153 144 345 332 335 294 272 224 230 242 259 272 280 283 282 277 275 276 278 272 273 284 286 286 285 284 283 282 280 280 278 275
101 101 104 109 113 110 106 104 107 113 142 155 158 170 192 231 260 281 290 288 273 265 267 270 278 285 286 281 281 283 303 297 292 290 288 287 286 284 282 279 277 275 274
101 105 112 113 112 110 110 110 113 105 91 91 83 276 281 291 295 298 293 289 290 289 289 287 282 280 285 289 287 309 316 298 291 288 287 287 286 284 281 278 276 273 271
115 119 118 117 113 113 115 117 114 111 120 130 258 298 303 299 303 300 296 298 299 296 290 281 278 284 289 292 293 317 290 285 280 278 281 283 283 282 280 277 275 273 271
120 121 116 114 116 120 119 120 127 132 140 217 288 310 299 296 307 302 302 303 299 297 294 294 302 297 296 297 300 310 290 281 273 273 275 278 279 278 276 275 273 272 270
123 122 119 116 114 115 120 144 121 137 163 283 299 301 306 311 299 303 300 297 298 299 298 304 301 301 300 295 298 294 292 289 286 282 277 275 274 274 273 272 271 269 268
117 120 116 115 116 118 125 137 129 94 8 340 329 324 314 310 313 300 295 294 291 292 295 299 300 301 305 297 293 291 290 290 283 277 274 272 269 269 270 270 269 267 265
116 116 116 115 115 115 113 106 77 46 332 328 321 317 312 311 305 307 300 295 293 295 296 299 302 303 300 294 293 291 291 290 289 284 282 280 274 270 269 269 268 267 265
105 107 109 109 109 107 101 83 40 353 335 327 323 317 312 311 307 298 301 300 300 299 295 298 300 301 298 297 294 292 292 291 292 290 284 280 276 272 269 266 265 263 263
97 96 98 102 103 100 88 50 360 341 332 325 320 315 313 309 304 306 305 300 299 297 296 296 298 299 298 297 298 297 299 298 295 292 284 273 269 265 262 259 257 256 256
95 96 99 103 103 90 52 9 346 336 327 322 317 312 307 306 305 307 303 301 302 303 300 296 295 298 299 302 305 304 301 299 297 296 292 285 274 264 258 255 253 252 250
99 105 107 103 88 66 37 9 341 329 324 318 314 310 305 305 298 298 304 308 307 303 301 297 297 300 300 304 304 302 297 298 293 291 292 292 289 281 275 259 247 247 244
101 100 89 73 56 62 62 22 340 326 317 313 315 313 307 291 297 293 285 292 296 295 296 296 295 294 296 299 299 297 296 296 296 293 294 294 292 286 282 278 272 250 235
103 85 61 51 71 85 52 3 339 315 308 314 313 310 309 315 308 310 313 306 295 283 280 285 288 290 294 297 300 300 299 297 294 295 293 289 289 286 286 281 268 252 240
84 73 55 40 45 85 50 356 326 299 304 311 309 306 305 308 321 331 318 307 304 302 300 295 293 294 294 297 299 297 297 296 295 296 296 290 300 307 305 293 259 249 250
78 64 49 22 14 89 66 352 324 312 313 314 313 311 307 309 347 331 313 306 308 309 305 294 285 283 282 279 278 289 300 306 311 314 325 316 309 308 300 296 269 234 247
65 34 40 13 357 21 87 349 327 317 321 319 317 313 305 331 329 318 314 307 309 317 318 317 311 304 296 289 267 276 303 310 314 307 332 327 309 318 312 311 310 281 241
Height
1567 1569 1570 1570 1573 1574 1575 1577 1578 1578 1579 1581 1582 1582 1583 1583 1584 1584 1583 1582 1582 1582 1582 1582 1581 1581 1580 1580 1580 1579 1579 1579 1579 1579 1579 1578 1578 1578 1578 1578 1578 1579 1579
1566 1567 1568 1569 1571 1573 1575 1576 1577 1577 1579 1580 1580 1580 1581 1581 1580 1581 1582 1580 1579 1579 1578 1578 1577 1577 1576 1576 1575 1575 1575 1574 1574 1574 1574 1574 1574 1574 1574 1574 1574 1574 1575
1563 1565 1566 1568 1569 1570 1571 1573 1575 1576 1577 1577 1578 1578 1578 1578 1577 1577 1578 1578 1576 1574 1574 1573 1573 1572 1571 1571 1570 1569 1569 1568 1568 1568 1568 1568 1568 1568 1568 1568 1568 1569 1569
1561 1563 1564 1565 1567 1569 1570 1572 1573 1574 1574 1575 1575 1575 1575 1575 1574 1574 1574 1573 1573 1571 1569 1567 1567 1566 1565 1564 1564 1563 1562 1562 1562 1561 1562 1562 1561 1561 1561 1561 1562 1562 1563
1558 1560 1562 1564 1565 1567 1568 1570 1571 1571 1571 1571 1572 1572 1572 1572 1571 1570 1569 1568 1566 1566 1565 1562 1561 1560 1559 1558 1557 1557 1556 1556 1556 1555 1555 1555 1554 1554 1555 1555 1555 1555 1556
1556 1558 1559 1561 1563 1565 1566 1567 1568 1568 1568 1568 1568 1568 1569 1568 1567 1566 1565 1564 1562 1561 1561 1559 1559 1556 1554 1553 1552 1552 1551 1551 1550 1550 1549 1549 1548 1548 1548 1548 1548 1548 1549
1553 1554 1555 1558 1560 1561 1562 1563 1564 1564 1564 1565 1566 1565 1564 1563 1562 1561 1562 1562 1560 1558 1557 1555 1555 1554 1552 1549 1547 1546 1546 1545 1544 1544 1543 1542 1542 1541 1542 1542 1542 1542 1542
1547 1550 1551 1553 1555 1558 1559 1560 1561 1561 1561 1561 1562 1563 1563 1562 1557 1559 1558 1558 1557 1556 1555 1553 1551 1549 1548 1547 1545 1540 1539 1538 1537 1537 1536 1536 1535 1534 1534 1534 1535 1535 1535
1543 1546 1546 1548 1551 1554 1556 1557 1558 1558 1558 1558 1559 1561 1562 1560 1558 1557 1555 1555 1553 1553 1552 1550 1548 1546 1543 1541 1539 1537 1533 1531 1530 1529 1529 1528 1527 1527 1526 1526 1527 1527 1527
1540 1542 1544 1545 1548 1550 1552 1554 1554 1555 1556 1557 1557 1557 1558 1557 1558 1556 1554 1552 1551 1549 1547 1545 1544 1542 1539 1536 1534 1531 1527 1525 1523 1522 1521 1520 1519 1519 1518 1518 1518 1518 1519
1538 1540 1542 1544 1546 1548 1550 1552 1553 1553 1554 1556 1557 1557 1556 1555 1555 1554 1552 1551 1548 1546 1544 1541 1539 1536 1534 1531 1529 1526 1521 1518 1516 1514 1513 1512 1511 1510 1510 1510 1510 1510 1510
1536 1538 1541 1543 1545 1547 1549 1551 1551 1552 1553 1553 1554 1555 1555 1555 1553 1552 1549 1546 1544 1542 1540 1537 1534 1531 1528 1526 1524 1519 1514 1512 1509 1507 1505 1504 1503 1502 1501 1501 1501 1501 1502
1536 1538 1541 1543 1545 1547 1549 1550 1550 1551 1552 1552 1552 1553 1553 1552 1551 1549 1546 1543 1539 1536 1534 1532 1529 1526 1523 1521 1517 1512 1508 1505 1502 1499 1497 1496 1494 1493 1492 1492 1492 1492 1493
1536 1539 1542 1544 1546 1547 1548 1549 1550 1550 1550 1550 1550 1550 1549 1549 1547 1545 1543 1539 1534 1530 1528 1527 1524 1521 1518 1515 1511 1505 1502 1499 1495 1492 1490 1487 1486 1484 1483 1482 1482 1482 1483
1537 1540 1543 1544 1546 1548 1549 1549 1550 1550 1549 1549 1549 1548 1547 1546 1543 1541 1538 1536 1533 1526 1522 1521 1518 1515 1511 1508 1504 1499 1496 1492 1488 1485 1481 1478 1476 1474 1473 1472 1472 1472 1473
1538 1541 1543 1545 1546 1547 1548 1549 1549 1548 1548 1546 1545 1543 1541 1541 1539 1536 1534 1531 1528 1524 1518 1515 1512 1509 1505 1501 1497 1492 1488 1484 1479 1476 1472 1469 1467 1465 1463 1462 1462 1462 1463
1540 1542 1544 1545 1546 1547 1547 1547 1547 1546 1545 1544 1542 1540 1538 1536 1534 1531 1529 1527 1524 1520 1514 1509 1507 1502 1498 1493 1489 1485 1481 1476 1472 1468 1464 1461 1458 1456 1454 1453 1452 1453 1453
1541 1543 1544 1545 1546 1546 1546 1545 1545 1544 1543 1541 1538 1536 1534 1532 1529 1527 1524 1522 1518 1515 1510 1504 1500 1496 1492 1487 1482 1478 1474 1470 1465 1461 1456 1452 1449 1447 1445 1443 1443 1443 1444
1541 1543 1544 1544 1545 1544 1544 1543 1542 1540 1539 1537 1535 1532 1530 1527 1525 1523 1519 1516 1513 1509 1505 1500 1494 1490 1486 1482 1477 1472 1468 1463 1458 1454 1449 1445 1442 1439 1437 1435 1435 1435 1436
1542 1542 1543 1543 1543 1543 1542 1541 1539 1537 1535 1533 1531 1528 1526 1523 1521 1518 1515 1512 1508 1504 1500 1495 1490 1485 1481 1477 1472 1467 1461 1457 1452 1448 1444 1440 1436 1433 1430 1428 1427 1427 1428
1541 1542 1542 1542 1542 1541 1539 1537 1536 1535 1532 1530 1528 1525 1523 1519 1516 1513 1510 1507 1503 1499 1495 1490 1485 1480 1476 1471 1467 1461 1456 1451 1446 1442 1438 1434 1431 1427 1424 1422 1420 1420 1420
1541 1541 1541 1541 1540 1539 1536 1534 1532 1531 1529 1527 1525 1522 1519 1517 1513 1509 1506 1503 1499 1495 1490 1486 1480 1476 1471 1466 1461 1456 1451 1446 1440 1438 1433 1428 1425 1421 1419 1416 1415 1414 1414
1541 1541 1540 1540 1538 1535 1534 1532 1530 1528 1527 1524 1521 1518 1516 1514 1510 1507 1503 1498 1494 1490 1486 1482 1476 1471 1466 1461 1456 1451 1447 1442 1436 1432 1428 1422 1420 1416 1414 1411 1409 1408 1408
1541 1540 1539 1538 1537 1534 1532 1530 1528 1525 1524 1521 1518 1515 1513 1510 1507 1503 1498 1494 1490 1486 1482 1477 1471 1466 1461 1456 1452 1447 1442 1437 1432 1428 1424 1419 1415 1412 1409 1407 1405 1404 1403
1540 1540 1538 1537 1535 1533 1530 1527 1525 1522 1521 1518 1516 1513 1510 1508 1504 1500 1495 1490 1486 1481 1477 1471 1466 1460 1455 1451 1447 1443 1439 1435 1430 1425 1422 1417 1413 1409 1406 1404 1402 1400 1399
1540 1540 1538 1536 1534 1532 1528 1525 1522 1521 1518 1515 1513 1511 1508 1504 1501 1496 1492 1488 1483 1478 1472 1466 1461 1456 1451 1447 1443 1440 1437 1432 1428 1423 1419 1416 1412 1408 1405 1403 1400 1398 1397